Flight Track Log - Related Links

Times and Time Zones

All times are in EDT time to prevent confusion due to time zone crossing. See the EGF3681 flight status page for this flight to view local times or setup timezone preferences in your user account.

Time Position Orientation Groundspeed Altitude Reporting Facility
EDT Latitude Longitude Course Direction KTS MPH feet Rate Location/Type
Mon 11:39:40 PM 42.0333 -87.9500 95° East 216 249 3,000  Level Chicago TRACON
Mon 11:40:46 PM 42.1000 -87.8833 37° Northeast 267 307 5,400 2,158 Climbing Chicago TRACON
Mon 11:41:00 PM 41.9652 -87.5183 98° East  Level FlightAware Approximate
Mon 11:41:34 PM 42.1333 -87.8167 56° Northeast 291 335 7,100  Level Chicago TRACON
Mon 11:42:00 PM 41.9526 -87.3922 98° East  Level FlightAware Approximate
Mon 11:42:40 PM 42.1281 -87.7125 94° East 295 339 9,100  Level Chicago Center
Mon 11:43:00 PM 41.9428 -87.2656 95° East  Level FlightAware Approximate
Mon 11:43:41 PM 42.1100 -87.6050 103° East 305 351 11,400  Level Chicago Center
Mon 11:44:00 PM 41.9337 -87.1390 95° East  Level FlightAware Approximate
Mon 11:44:41 PM 42.0753 -87.4964 113° Southeast 315 362 13,200  Level Chicago Center
Mon 11:45:42 PM 42.0414 -87.3825 112° Southeast 326 375 15,000 1,820 Climbing Chicago Center
Mon 11:46:43 PM 41.9975 -87.2411 113° Southeast 339 390 16,900 1,623 Climbing Chicago Center
Mon 11:47:44 PM 41.9611 -87.1183 112° Southeast 351 404 18,300 1,041 Climbing Chicago Center
Mon 11:48:44 PM 41.9444 -86.9878 100° East 364 419 19,000 397 Climbing Chicago Center
Mon 11:49:45 PM 41.9469 -86.8383 89° East 396 456 19,100 541 Climbing Chicago Center
Mon 11:50:46 PM 41.9503 -86.6911 88° East 397 457 20,100 992 Climbing Chicago Center
Mon 11:51:46 PM 41.9514 -86.5575 89° East 405 466 21,100 992 Climbing Chicago Center
Mon 11:52:47 PM 41.9122 -86.4186 111° Southeast 416 479 22,100 934 Climbing Chicago Center
Mon 11:53:48 PM 41.8039 -86.2967 140° Southeast 425 489 23,000 446 Climbing Chicago Center
Mon 11:54:48 PM 41.7092 -86.1903 140° Southeast 443 510 23,000  Level Chicago Center
Mon 11:55:49 PM 41.6094 -86.0789 140° Southeast 465 535 23,000  Level Chicago Center
Mon 11:56:49 PM 41.5092 -85.9664 140° Southeast 474 545 23,000  Level Chicago Center
Mon 11:57:50 PM 41.4078 -85.8539 140° Southeast 478 550 23,000  Level Chicago Center
Mon 11:58:53 PM 41.3083 -85.7428 140° Southeast 473 544 23,000  Level Chicago Center
Mon 11:59:53 PM 41.2114 -85.6336 140° Southeast 464 534 23,000  Level Chicago Center
Tue 12:00:54 AM 41.1133 -85.5261 140° Southeast 460 529 23,000  Level Chicago Center
Tue 12:01:55 AM 41.0164 -85.4194 140° Southeast 458 527 23,000 -843 Level Chicago Center
Tue 12:02:55 AM 40.9197 -85.3117 140° Southeast 457 526 21,300 -2,083 Descending Chicago Center
Tue 12:03:56 AM 40.8019 -85.1822 140° Southeast 461 531 18,800 -2,182 Descending Chicago Center
Tue 12:04:56 AM 40.7078 -85.0789 140° Southeast 449 517 16,900 -1,914 Descending Chicago Center
Tue 12:05:52 AM 40.6242 -84.9919 142° Southeast 430 495 15,100 -2,051 Descending Indianapolis Center
Tue 12:06:53 AM 40.5400 -84.8997 140° Southeast 403 464 12,900 -1,785 Descending Indianapolis Center
Tue 12:07:53 AM 40.4644 -84.8214 142° Southeast 396 456 11,500 -942 Descending Indianapolis Center
Tue 12:08:54 AM 40.3864 -84.7331 139° Southeast 380 437 11,000 -793 Descending Indianapolis Center
Tue 12:09:54 AM 40.3242 -84.6500 134° Southeast 333 383 9,900 -1,388 Descending Indianapolis Center
Tue 12:10:55 AM 40.2581 -84.5611 134° Southeast 290 334 8,200 -1,525 Descending Indianapolis Center
Tue 12:11:56 AM 40.2017 -84.4864 135° Southeast 287 330 6,800 -1,339 Descending Indianapolis Center
Tue 12:12:56 AM 40.1478 -84.4147 135° Southeast 281 323 5,500 -1,091 Descending Indianapolis Center
Tue 12:13:57 AM 40.0933 -84.3419 134° Southeast 279 321 4,600 -992 Descending Indianapolis Center
Tue 12:14:57 AM 40.0397 -84.2744 136° Southeast 276 318 3,500 -992 Descending Indianapolis Center
Tue 12:15:58 AM 39.9944 -84.2178 136° Southeast 250 288 2,600 -836 Descending Indianapolis Center
Tue 12:16:59 AM 39.9531 -84.2122 174° South 184 212 1,800 -545 Descending Indianapolis Center
Tue 12:17:59 AM 39.9167 -84.2131 181° South 169 194 1,500 -300 Descending Indianapolis Center

Login

Don't have an account? Register now (free) for customized features, flight alerts, and more!